CW3322 Weather Reports


time (UTC)temp
C
wind
direction
speed
KPH
gust
KPH
rain 1hr
cm
rain 24hr
cm
rain mn
cm
humidity
%
barometer
mb
20260510132023 24 11 0.0 1.6 0.00 0.00 0.00 48 1009.1
20260510130020 24 0.0 0.0 0.00 0.00 0.00 49 1009.5
20260510115055 24 25 3.2 4.8 0.00 0.00 0.00 51 1010.5
20260510112516 23 19 1.6 8.0 0.00 0.00 0.00 52 1010.4
20260510110525 23 89 4.8 8.0 0.00 0.00 0.00 51 1010.5
20260510104518 23 3 1.6 3.2 0.00 0.00 0.00 53 1010.5
20260510104245 23 12 1.6 4.8 0.00 0.00 0.00 51 1010.5
20260510101526 23 355 0.0 1.6 0.00 0.00 0.00 54 1011.5
20260510093027 22 28 1.6 4.8 0.00 0.00 0.00 56 1011.5
20260510090518 21 54 3.2 8.0 0.00 0.00 0.00 58 1011.5
20260510084020 20 28 1.6 8.0 0.00 0.00 0.00 62 1011.4
20260510083526 20 14 0.0 3.2 0.00 0.00 0.00 62 1011.4
20260510083334 19 0.0 0.0 0.00 0.00 0.00 65 1012.4
20260510082525 19 0.0 0.0 0.00 0.00 0.00 65 1012.4
20260510082017 18 356 0.0 1.6 0.00 0.00 0.00 66 1012.4
20260510081536 18 3 0.0 1.6 0.00 0.00 0.00 66 1011.5
20260510081029 18 0.0 0.0 0.00 0.00 0.00 67 1011.3
20260510080552 18 8 0.0 1.6 0.00 0.00 0.00 67 1011.3
20260510080026 18 4 0.0 1.6 0.00 0.00 0.00 67 1012.2
20260510075519 18 0.0 0.0 0.00 0.00 0.00 68 1012.4
20260510075031 17 0.0 0.0 0.00 0.00 0.00 70 1012.3
20260510074517 17 0.0 0.0 0.00 0.00 0.00 71 1012.3
20260510074041 16 24 0.0 3.2 0.00 0.00 0.00 71 1012.3
20260510073557 16 0.0 0.0 0.00 0.00 0.00 71 1012.3
20260510073353 16 350 0.0 0.0 0.00 0.00 0.00 72 1012.3
20260510072525 16 0.0 0.0 0.00 0.00 0.00 73 1012.3
20260510072453 16 0.0 0.0 0.00 0.00 0.00 74 1012.3
20260510071522 16 359 0.0 3.2 0.00 0.00 0.00 74 1012.3
20260510071027 16 0.0 0.0 0.00 0.00 0.00 75 1012.3
20260510070931 15 0.0 0.0 0.00 0.00 0.00 77 1012.3
20260510070024 15 0.0 0.0 0.00 0.00 0.00 78 1012.3
20260510065514 15 0.0 0.0 0.00 0.00 0.00 78 1012.3
20260510064546 15 0.0 0.0 0.00 0.00 0.00 78 1012.3
20260510064048 15 0.0 0.0 0.00 0.00 0.00 80 1012.4
20260510063523 14 0.0 0.0 0.00 0.00 0.00 84 1012.4
20260510063015 13 0.0 0.0 0.00 0.00 0.00 87 1012.4
20260510062520 13 0.0 0.0 0.00 0.00 0.00 88 1012.4
20260510062024 13 0.0 0.0 0.00 0.00 0.00 87 1012.4
20260510061516 13 0.0 0.0 0.00 0.00 0.00 89 1012.6
20260510061034 12 0.0 0.0 0.00 0.00 0.00 92 1013.4
20260510060526 11 0.0 0.0 0.00 0.00 0.00 93 1013.3
20260510060017 11 0.0 0.0 0.00 0.00 0.00 95 1013.3
20260510055521 11 0.0 0.0 0.00 0.00 0.00 96 1013.3
20260510055026 10 0.0 0.0 0.00 0.00 0.00 95 1013.3
20260510054518 10 0.0 0.0 0.00 0.00 0.00 96 1013.3
20260510054052 10 0.0 0.0 0.00 0.00 0.00 96 1013.3
20260510053527 10 0.0 0.0 0.00 0.00 0.00 97 1013.3
20260510053019 10 0.0 0.0 0.00 0.00 0.00 97 1013.3
20260510052523 10 0.0 0.0 0.00 0.00 0.00 98 1013.3
20260510052015 9 0.0 0.0 0.00 0.00 0.00 99 1013.3
20260510051520 9 0.0 0.0 0.00 0.00 0.00 99 1013.2
20260510051024 8 0.0 0.0 0.00 0.00 0.00 99 1013.2
20260510050516 8 0.0 0.0 0.00 0.00 0.00 99 1013.2
20260510050020 8 0.0 0.0 0.00 0.00 0.00 99 1013.2
20260510045655 8 0.0 0.0 0.00 0.00 0.00 99 1013.2
20260510045017 8 0.0 0.0 0.00 0.00 0.00 99 1013.2
20260510044522 8 0.0 0.0 0.00 0.00 0.00 99 1013.2
20260510044027 8 0.0 0.0 0.00 0.00 0.00 99 1013.3
20260510043519 8 0.0 0.0 0.00 0.00 0.00 99 1013.3
20260510043023 8 0.0 0.0 0.00 0.00 0.00 99 1013.3
20260510042516 8 0.0 0.0 0.00 0.00 0.00 99 1012.5
20260510042021 8 0.0 0.0 0.00 0.00 0.00 99 1012.3
20260510041802 8 0.0 0.0 0.00 0.00 0.00 98 1012.3
20260510041018 8 0.0 0.0 0.00 0.00 0.00 97 1012.3
20260510040924 8 0.0 0.0 0.00 0.00 0.00 97 1013.3
20260510040026 8 0.0 0.0 0.00 0.00 0.00 98 1013.3
20260510035518 8 0.0 0.0 0.00 0.00 0.00 97 1013.3
20260510035023 8 0.0 0.0 0.00 0.00 0.00 97 1013.3
20260510034527 8 0.0 0.0 0.00 0.00 0.00 98 1013.3
20260510034019 8 0.0 0.0 0.00 0.00 0.00 97 1013.3
20260510033523 8 0.0 0.0 0.00 0.00 0.00 96 1013.3
20260510033015 8 0.0 0.0 0.00 0.00 0.00 97 1013.3
20260510032520 8 0.0 0.0 0.00 0.00 0.00 97 1013.3
20260510032025 8 0.0 0.0 0.00 0.00 0.00 97 1013.3
20260510031517 8 0.0 0.0 0.00 0.00 0.00 95 1013.3
20260510031021 9 0.0 0.0 0.00 0.00 0.00 95 1013.3
20260510030556 9 0.0 0.0 0.00 0.00 0.00 95 1013.3
20260510030018 9 0.0 0.0 0.00 0.00 0.00 95 1013.3
20260510025523 9 0.0 0.0 0.00 0.00 0.00 95 1013.3
20260510025027 9 0.0 0.0 0.00 0.00 0.00 95 1013.3
20260510024519 9 0.0 0.0 0.00 0.00 0.00 94 1013.3
20260510024024 10 0.0 0.0 0.00 0.00 0.00 93 1013.4
20260510023516 10 0.0 0.0 0.00 0.00 0.00 92 1013.4
20260510023020 10 0.0 0.0 0.00 0.00 0.00 92 1013.4
20260510022525 10 0.0 0.0 0.00 0.00 0.00 92 1013.4
20260510022017 10 0.0 0.0 0.00 0.00 0.00 91 1013.4
20260510021552 10 0.0 0.0 0.00 0.00 0.00 92 1013.4
20260510021026 10 0.0 0.0 0.00 0.00 0.00 90 1013.4
20260510020518 10 0.0 0.0 0.00 0.00 0.00 89 1013.4
20260510020023 11 0.0 0.0 0.00 0.00 0.00 89 1013.5
20260510015615 11 0.0 0.0 0.00 0.00 0.00 89 1013.5
20260510015019 11 0.0 0.0 0.00 0.00 0.00 89 1013.5
20260510014623 11 0.0 0.0 0.00 0.00 0.00 88 1013.5
20260510014015 11 0.0 0.0 0.00 0.00 0.00 87 1013.5
20260510013533 11 0.0 0.0 0.00 0.00 0.00 86 1014.4
20260510013055 12 0.0 0.0 0.00 0.00 0.00 85 1014.5
20260510012547 12 0.0 0.0 0.00 0.00 0.00 85 1014.5
20260510012021 12 329 0.0 0.0 0.00 0.00 0.00 84 1014.5
20260510011525 12 0.0 0.0 0.00 0.00 0.00 82 1014.5
20260510011047 12 0.0 0.0 0.00 0.00 0.00 82 1014.5
20260510010522 12 0.0 0.0 0.00 0.00 0.00 81 1014.5
20260510010026 12 0.0 0.0 0.00 0.00 0.00 80 1014.5
20260510005518 12 343 0.0 1.6 0.00 0.00 0.00 80 1014.5
20260510005023 12 0.0 0.0 0.00 0.00 0.00 80 1014.5
20260510004527 12 0.0 0.0 0.00 0.00 0.00 80 1014.5
20260510004018 12 0.0 0.0 0.00 0.00 0.00 80 1014.5
20260510003523 12 0.0 0.0 0.00 0.00 0.00 82 1014.4
20260510003015 12 0.0 0.0 0.00 0.00 0.00 83 1014.4
20260510002519 12 0.0 0.0 0.00 0.00 0.00 83 1014.4
20260510002355 12 0.0 0.0 0.00 0.00 0.00 84 1014.4
20260510001516 12 0.0 0.0 0.00 0.00 0.00 85 1014.4
20260510001450 12 0.0 0.0 0.00 0.00 0.00 85 1014.4
20260510000525 12 0.0 0.0 0.00 0.00 0.00 86 1014.4
20260510000017 12 0.0 0.0 0.00 0.00 0.00 86 1014.4
20260509235522 12 0.0 0.0 0.00 0.00 0.00 85 1014.4
20260509235026 12 0.0 0.0 0.00 0.00 0.00 85 1014.8
20260509234518 12 0.0 0.0 0.00 0.00 0.00 86 1015.4
20260509234023 12 332 0.0 1.6 0.00 0.00 0.00 85 1015.4
20260509233527 12 335 0.0 3.2 0.00 0.00 0.00 84 1015.4
20260509233019 12 0.0 0.0 0.00 0.00 0.00 85 1015.4
20260509232523 12 0.0 0.0 0.00 0.00 0.00 84 1015.4
20260509232016 12 0.0 0.0 0.00 0.00 0.00 84 1015.2
20260509231550 12 0.0 0.0 0.00 0.00 0.00 85 1014.4
20260509231025 12 0.0 0.0 0.00 0.00 0.00 84 1014.4
20260509230517 12 0.0 0.0 0.00 0.00 0.00 84 1014.4
20260509230021 12 0.0 0.0 0.00 0.00 0.00 84 1014.4
20260509225526 12 0.0 0.0 0.00 0.00 0.00 82 1014.4
20260509225018 12 0.0 0.0 0.00 0.00 0.00 82 1014.9
20260509224522 13 0.0 0.0 0.00 0.00 0.00 81 1015.4
20260509224027 13 0.0 0.0 0.00 0.00 0.00 82 1015.4
20260509223549 13 0.0 0.0 0.00 0.00 0.00 81 1015.4
20260509223023 13 0.0 0.0 0.00 0.00 0.00 80 1015.4
20260509222515 13 0.0 0.0 0.00 0.00 0.00 79 1015.4
20260509222020 13 0.0 0.0 0.00 0.00 0.00 80 1015.4
20260509221524 13 0.0 0.0 0.00 0.00 0.00 80 1015.4
20260509221016 13 0.0 0.0 0.00 0.00 0.00 80 1015.4
20260509220521 13 0.0 0.0 0.00 0.00 0.00 80 1015.4
20260509220026 13 0.0 0.0 0.00 0.00 0.00 80 1015.4
20260509215517 13 0.0 0.0 0.00 0.00 0.00 79 1015.4
20260509215022 13 0.0 0.0 0.00 0.00 0.00 78 1015.4
20260509214526 14 0.0 0.0 0.00 0.00 0.00 78 1015.4
20260509214019 14 0.0 0.0 0.00 0.00 0.00 77 1015.4
20260509213523 14 0.0 0.0 0.00 0.00 0.00 75 1015.4
20260509213115 15 0.0 0.0 0.00 0.00 0.00 74 1015.4
20260509212520 15 0.0 0.0 0.00 0.00 0.00 74 1015.4
20260509212025 15 0.0 0.0 0.00 0.00 0.00 73 1015.4
20260509211547 15 346 0.0 0.0 0.00 0.00 0.00 73 1015.4
20260509211051 15 0.0 0.0 0.00 0.00 0.00 74 1015.4
20260509210526 15 0.0 0.0 0.00 0.00 0.00 74 1015.4
20260509210148 15 0.0 0.0 0.00 0.00 0.00 73 1015.4
20260509205536 15 0.0 0.0 0.00 0.00 0.00 73 1015.4
20260509205058 15 0.0 0.0 0.00 0.00 0.00 73 1015.4
20260509204521 15 0.0 0.0 0.00 0.00 0.00 73 1015.4
20260509204054 15 0.0 0.0 0.00 0.00 0.00 73 1015.4
20260509203517 15 0.0 0.0 0.00 0.00 0.00 73 1015.3
20260509203021 15 0.0 0.0 0.00 0.00 0.00 73 1015.3
20260509202526 15 0.0 0.0 0.00 0.00 0.00 74 1015.3
20260509202018 15 0.0 0.0 0.00 0.00 0.00 74 1015.3
20260509201523 15 0.0 0.0 0.00 0.00 0.00 74 1015.3
20260509201015 15 0.0 0.0 0.00 0.00 0.00 75 1015.3
20260509200520 15 0.0 0.0 0.00 0.00 0.00 75 1015.3
20260509200055 15 356 0.0 1.6 0.00 0.00 0.00 76 1015.2
20260509195517 15 0.0 0.0 0.00 0.00 0.00 77 1015.2
20260509195022 15 0.0 0.0 0.00 0.00 0.00 77 1015.2
20260509194556 15 0.0 0.0 0.00 0.00 0.00 77 1015.2
20260509194019 15 0.0 0.0 0.00 0.00 0.00 76 1015.2
20260509193553 15 0.0 0.0 0.00 0.00 0.00 76 1015.3
20260509193016 15 0.0 0.0 0.00 0.00 0.00 76 1014.8
20260509192520 15 0.0 0.0 0.00 0.00 0.00 76 1014.3
20260509192126 15 0.0 0.0 0.00 0.00 0.00 76 1014.3
20260509191518 16 0.0 0.0 0.00 0.00 0.00 76 1014.3
20260509191123 16 0.0 0.0 0.00 0.00 0.00 74 1014.3
20260509190545 16 0.0 0.0 0.00 0.00 0.00 74 1014.2
20260509190020 16 0.0 0.0 0.00 0.00 0.00 74 1014.3
20260509185525 16 0.0 0.0 0.00 0.00 0.00 73 1014.3
20260509185018 17 0.0 0.0 0.00 0.00 0.00 71 1014.3
20260509184522 17 0.0 0.0 0.00 0.00 0.00 70 1014.3
20260509184015 17 0.0 0.0 0.00 0.00 0.00 69 1014.3
20260509183520 17 0.0 0.0 0.00 0.00 0.00 70 1014.3
20260509183025 18 0.0 0.0 0.00 0.00 0.00 69 1014.2
20260509182548 18 0.0 0.0 0.00 0.00 0.00 66 1014.3
20260509182023 19 0.0 0.0 0.00 0.00 0.00 65 1014.3
20260509181515 20 0.0 0.0 0.00 0.00 0.00 63 1014.3
20260509181020 20 0.0 0.0 0.00 0.00 0.00 60 1014.3
20260509180555 20 0.0 0.0 0.00 0.00 0.00 55 1014.2
20260509180017 20 5 0.0 1.6 0.00 0.00 0.00 54 1014.2
20260509175522 21 0.0 0.0 0.00 0.00 0.00 55 1014.2
20260509175015 21 0.0 0.0 0.00 0.00 0.00 54 1014.2
20260509174520 21 348 0.0 0.0 0.00 0.00 0.00 52 1014.2
20260509174056 21 25 0.0 3.2 0.00 0.00 0.00 51 1014.2
20260509173518 21 9 0.0 3.2 0.00 0.00 0.00 51 1014.1
20260509173037 21 356 0.0 1.6 0.00 0.00 0.00 50 1014.1
20260509172529 21 12 1.6 3.2 0.00 0.00 0.00 50 1014.1
20260509172022 21 355 0.0 1.6 0.00 0.00 0.00 50 1014.1
20260509171515 21 2 0.0 3.2 0.00 0.00 0.00 49 1014.1
20260509171019 21 32 1.6 8.0 0.00 0.00 0.00 47 1014.1
20260509170525 22 351 0.0 1.6 0.00 0.00 0.00 47 1014.1
20260509170017 22 0 0.0 1.6 0.00 0.00 0.00 47 1014.1
20260509165622 22 316 0.0 3.2 0.00 0.00 0.00 43 1014.1
20260509165015 22 327 0.0 3.2 0.00 0.00 0.00 43 1014.1
20260509164520 22 357 0.0 3.2 0.00 0.00 0.00 43 1014.1
20260509164025 22 317 1.6 3.2 0.00 0.00 0.00 43 1014.1
20260509163518 23 22 1.6 3.2 0.00 0.00 0.00 42 1014.1
20260509163023 23 26 1.6 4.8 0.00 0.00 0.00 41 1014.2
20260509162516 23 20 0.0 3.2 0.00 0.00 0.00 40 1014.2
20260509162021 24 13 1.6 4.8 0.00 0.00 0.00 40 1014.2
20260509161526 24 356 0.0 3.2 0.00 0.00 0.00 41 1014.2
20260509161019 23 0.0 0.0 0.00 0.00 0.00 43 1014.2
20260509160525 23 3 0.0 3.2 0.00 0.00 0.00 44 1014.1
20260509160018 23 26 0.0 3.2 0.00 0.00 0.00 43 1014.1
20260509155523 22 14 0.0 3.2 0.00 0.00 0.00 43 1014.1
20260509155046 23 3 0.0 3.2 0.00 0.00 0.00 43 1014.1
20260509154521 23 359 0.0 8.0 0.00 0.00 0.00 43 1014.1
20260509154026 23 26 1.6 4.8 0.00 0.00 0.00 42 1014.2
20260509153519 24 36 3.2 8.0 0.00 0.00 0.00 41 1014.2
20260509153024 25 25 1.6 8.0 0.00 0.00 0.00 40 1014.2
20260509152517 25 11 1.6 3.2 0.00 0.00 0.00 39 1014.5
20260509152022 25 23 1.6 8.0 0.00 0.00 0.00 39 1015.2
20260509151515 25 15 1.6 3.2 0.00 0.00 0.00 38 1015.3
20260509151020 25 356 0.0 4.8 0.00 0.00 0.00 39 1015.2
20260509150525 24 3 0.0 3.2 0.00 0.00 0.00 40 1015.2
20260509150018 24 9 0.0 3.2 0.00 0.00 0.00 41 1015.2
20260509145523 24 18 0.0 3.2 0.00 0.00 0.00 40 1015.2
20260509145016 24 7 0.0 4.8 0.00 0.00 0.00 40 1015.2
20260509144521 24 17 0.0 3.2 0.00 0.00 0.00 40 1015.2
20260509144026 24 16 1.6 4.8 0.00 0.00 0.00 40 1015.2
20260509143519 24 29 1.6 8.0 0.00 0.00 0.00 40 1015.2
20260509143024 24 357 1.6 8.0 0.00 0.00 0.00 38 1015.2
20260509142518 24 333 1.6 4.8 0.00 0.00 0.00 39 1015.2
20260509142023 24 310 1.6 3.2 0.00 0.00 0.00 39 1015.2
20260509141516 24 0.0 0.0 0.00 0.00 0.00 40 1015.2
20260509141128 25 20 1.6 3.2 0.00 0.00 0.00 38 1015.3
20260509140526 25 16 1.6 4.8 0.00 0.00 0.00 38 1015.3
20260509140234 25 28 1.6 8.0 0.00 0.00 0.00 37 1015.3
20260509135554 25 32 1.6 8.0 0.00 0.00 0.00 38 1015.3
20260509135018 25 11 1.6 3.2 0.00 0.00 0.00 38 1016.2
20260509134523 25 17 1.6 11.3 0.00 0.00 0.00 39 1016.3